Overview Statistics Trail Chart Weather Telemetry Raw packets
 

This is the latest recevied weather packets stored in our database for station/object 9W2XPF-13. If no packets are shown the sender has not sent any weather packets the latest 10 day(s).

<< 66 67 68 69 70 71 72 >>
Time Temp. Humidity Pressure Rain* Wind** Luminosity Snow
1777694762 29.44° C 85% 1009.9 hPa 0 mm - - -
1777694647 30° C 83% 1009.6 hPa 0 mm - - -
1777694522 30.56° C 80% 1009.8 hPa 0 mm - - -
1777694402 31.11° C 79% 1009.8 hPa 0 mm - - -
1777694282 31.11° C 77% 1010 hPa 0 mm - - -
1777694162 31.11° C 76% 1009.9 hPa 0 mm - - -
1777694042 31.67° C 74% 1010 hPa 0 mm - - -
1777693922 31.67° C 74% 1009.9 hPa 0 mm - - -
1777693802 31.67° C 74% 1009.9 hPa 0 mm - - -
1777693682 31.67° C 74% 1009.7 hPa 0 mm - - -
1777693562 31.67° C 74% 1009.6 hPa 0 mm - - -
1777693442 31.67° C 74% 1009.6 hPa 0 mm - - -
1777693322 31.67° C 73% 1009.5 hPa 0 mm - - -
1777693202 31.67° C 73% 1009.6 hPa 0 mm - - -
1777693082 32.22° C 71% 1009.7 hPa 0 mm - - -
1777692962 32.78° C 70% 1010 hPa 0 mm - - -
1777692842 32.78° C 69% 1009.8 hPa 0 mm - - -
1777692722 32.78° C 69% 1009.8 hPa 0 mm - - -
1777692602 32.78° C 68% 1009.8 hPa 0 mm - - -
1777692482 32.22° C 68% 1009.9 hPa 0 mm - - -
1777692362 32.22° C 69% 1009.9 hPa 0 mm - - -
1777692242 32.22° C 70% 1009.8 hPa 0 mm - - -
1777692122 32.78° C 69% 1009.7 hPa 0 mm - - -
1777692002 33.33° C 67% 1010 hPa 0 mm - - -
1777691882 32.78° C 68% 1009.9 hPa 0 mm - - -

* Rain latest hour (hover to see other rain measurements)
** Current wind speed in m/s (hover to see current wind gust speed)